Tracking 28915 objects as of 30-May-2024
HD Live streaming from Space Station
objects crossing your sky now

ORESAT0

Track ORESAT0 now!
10-day predictions
ORESAT0 is classified as:


NORAD ID: 52017
Int'l Code: 2022-026K
Perigee: 414.6 km
Apogee: 427.1 km
Inclination: 97.5 °
Period: 92.8 minutes
Semi major axis: 6791 km
RCS: Unknown
Launch date: March 15, 2022
Source: United States (US)
Launch site: Kodiak Island, Alaska (KODAK)

Uplink (MHz):
Downlink (MHz): 436.500/2425.000
Beacon (MHz): 436.500
Mode: 9k6FSK 96kGMSK 1M_DPSK CW
Call sign: KJ7SAT
Status: Active

Your satellite tracking list
Your tracking list is empty




NASA's NSSDC Master Catalog

Two Line Element Set (TLE):
1 52017U 22026K   24150.83692177  .00056225  00000-0  96197-3 0  9997
2 52017  97.4964 164.3188 0009244 274.7698  85.2498 15.51034476122860
Source of the keplerian elements: AMSAT